When you browse on this site, cookies collect data to enhance your experience and personalize the content and advertising you see.
Visit our Privacy Policy to learn more. By continuing to use the site, you agree to this use of cookies and data.

Hourly Weather Verona

Today, 11 July, Saturday

Time Temperature Precipitation Wind Pressure Humidity
00:00 +24°C° 0 mm 2 mps 755 mmHg 74%
01:00 +24°C° 0 mm 2 mps 755 mmHg 74%
02:00 +24°C° 0.5 mm 2 mps 755 mmHg 77%
03:00 +23°C° 0.5 mm 1 mps 754 mmHg 79%
04:00 +23°C° 0.5 mm 1 mps 754 mmHg 82%
05:00 +23°C° 0.6 mm 1 mps 754 mmHg 81%
06:00 +24°C° 0.6 mm 1 mps 754 mmHg 81%
07:00 +25°C° 0 mm 1 mps 755 mmHg 77%
08:00 +26°C° 0.4 mm 1 mps 755 mmHg 73%
09:00 +27°C° 0.4 mm 1 mps 755 mmHg 68%
10:00 +29°C° 0.4 mm 1 mps 755 mmHg 63%
11:00 +29°C° 0.2 mm 2 mps 755 mmHg 61%
12:00 +30°C° 0.2 mm 2 mps 755 mmHg 59%
13:00 +31°C° 0 mm 1 mps 755 mmHg 56%
14:00 +31°C° 0.8 mm 2 mps 755 mmHg 58%
15:00 +30°C° 0.8 mm 3 mps 755 mmHg 60%
16:00 +30°C° 0.8 mm 4 mps 755 mmHg 62%
17:00 +27°C° 1.5 mm 4 mps 755 mmHg 68%
18:00 +25°C° 1.5 mm 4 mps 755 mmHg 73%
19:00 +22°C° 1.5 mm 5 mps 756 mmHg 78%
20:00 +21°C° 0.3 mm 4 mps 756 mmHg 79%
21:00 +20°C° 0.3 mm 4 mps 757 mmHg 80%
22:00 +19°C° 0.3 mm 4 mps 758 mmHg 81%
23:00 +19°C° 0 mm 4 mps 758 mmHg 80%

Tomorrow, 12 July, Sunday

Time Temperature Precipitation Wind Pressure Humidity
00:00 +19°C° 0 mm 4 mps 759 mmHg 80%
01:00 +18°C° 0 mm 4 mps 760 mmHg 79%
02:00 +18°C° 0 mm 3 mps 760 mmHg 78%
03:00 +18°C° 0 mm 3 mps 759 mmHg 77%
04:00 +18°C° 0 mm 2 mps 759 mmHg 76%
05:00 +19°C° 0 mm 2 mps 760 mmHg 74%
06:00 +19°C° 0 mm 2 mps 760 mmHg 72%
07:00 +20°C° 0 mm 2 mps 760 mmHg 70%
08:00 +23°C° 0 mm 2 mps 760 mmHg 65%
09:00 +24°C° 0 mm 3 mps 760 mmHg 60%
10:00 +25°C° 0 mm 3 mps 760 mmHg 56%
11:00 +26°C° 0 mm 3 mps 760 mmHg 55%
12:00 +26°C° 0 mm 3 mps 760 mmHg 55%
13:00 +27°C° 0 mm 3 mps 760 mmHg 54%
14:00 +27°C° 0 mm 3 mps 760 mmHg 54%
15:00 +27°C° 0 mm 3 mps 759 mmHg 55%
16:00 +27°C° 0 mm 3 mps 759 mmHg 55%
17:00 +26°C° 0 mm 2 mps 759 mmHg 59%
18:00 +25°C° 0 mm 2 mps 759 mmHg 63%
19:00 +24°C° 0 mm 2 mps 760 mmHg 67%
20:00 +23°C° 0 mm 2 mps 760 mmHg 69%
21:00 +22°C° 0 mm 1 mps 761 mmHg 71%
22:00 +21°C° 0 mm 1 mps 761 mmHg 72%
23:00 +20°C° 0 mm 2 mps 761 mmHg 71%

Day after tomorrow, 13 July, Monday

Time Temperature Precipitation Wind Pressure Humidity
00:00 +20°C° 0 mm 2 mps 761 mmHg 69%
01:00 +20°C° 0 mm 3 mps 761 mmHg 67%
02:00 +19°C° 0 mm 3 mps 761 mmHg 65%
03:00 +19°C° 0 mm 3 mps 760 mmHg 63%
04:00 +18°C° 0 mm 3 mps 760 mmHg 60%
05:00 +19°C° 0 mm 3 mps 760 mmHg 60%
06:00 +20°C° 0 mm 2 mps 760 mmHg 60%
07:00 +21°C° 0 mm 2 mps 760 mmHg 60%
08:00 +22°C° 0 mm 3 mps 760 mmHg 57%
09:00 +24°C° 0 mm 3 mps 760 mmHg 54%
10:00 +25°C° 0 mm 3 mps 759 mmHg 51%
11:00 +26°C° 0 mm 3 mps 759 mmHg 50%
12:00 +27°C° 0 mm 3 mps 759 mmHg 49%
13:00 +27°C° 0 mm 3 mps 758 mmHg 48%
14:00 +27°C° 0 mm 3 mps 758 mmHg 48%
15:00 +27°C° 0 mm 2 mps 757 mmHg 49%
16:00 +28°C° 0 mm 2 mps 757 mmHg 50%
17:00 +27°C° 0 mm 2 mps 757 mmHg 55%
18:00 +26°C° 0 mm 2 mps 757 mmHg 60%
19:00 +25°C° 0 mm 1 mps 757 mmHg 65%
20:00 +23°C° 0 mm 1 mps 757 mmHg 67%
21:00 +22°C° 0 mm 1 mps 757 mmHg 69%
22:00 +21°C° 0 mm 1 mps 757 mmHg 70%
23:00 +21°C° 0 mm 1 mps 757 mmHg 68%

14 July, Tuesday

Time Temperature Precipitation Wind Pressure Humidity
00:00 +21°C° 0 mm 1 mps 757 mmHg 66%
01:00 +20°C° 0 mm 1 mps 757 mmHg 64%
02:00 +19°C° 0 mm 2 mps 757 mmHg 65%
03:00 +19°C° 0 mm 2 mps 756 mmHg 66%
04:00 +18°C° 0 mm 2 mps 756 mmHg 66%
05:00 +19°C° 0 mm 2 mps 756 mmHg 65%
06:00 +20°C° 0 mm 2 mps 756 mmHg 64%
07:00 +22°C° 0 mm 1 mps 756 mmHg 62%
08:00 +24°C° 0 mm 2 mps 756 mmHg 58%
09:00 +25°C° 0 mm 2 mps 756 mmHg 53%
10:00 +27°C° 0 mm 3 mps 756 mmHg 49%
11:00 +27°C° 0 mm 2 mps 755 mmHg 47%
12:00 +28°C° 0 mm 2 mps 755 mmHg 46%
13:00 +28°C° 0 mm 2 mps 755 mmHg 44%
14:00 +28°C° 0 mm 3 mps 755 mmHg 46%
15:00 +28°C° 0 mm 3 mps 754 mmHg 47%
16:00 +28°C° 0 mm 3 mps 754 mmHg 49%
17:00 +27°C° 0 mm 3 mps 754 mmHg 54%
18:00 +26°C° 0 mm 2 mps 754 mmHg 59%
19:00 +25°C° 0 mm 2 mps 755 mmHg 65%
20:00 +24°C° 0 mm 2 mps 755 mmHg 65%
21:00 +21°C° 0 mm 2 mps 755 mmHg 65%
22:00 +20°C° 0 mm 2 mps 755 mmHg 65%
23:00 +20°C° 0 mm 2 mps 755 mmHg 64%

15 July, Wednesday

Time Temperature Precipitation Wind Pressure Humidity
00:00 +20°C° 0 mm 2 mps 755 mmHg 63%
01:00 +19°C° 0 mm 2 mps 755 mmHg 63%
02:00 +19°C° 0 mm 2 mps 755 mmHg 62%
03:00 +19°C° 0 mm 2 mps 755 mmHg 61%
04:00 +19°C° 0 mm 2 mps 754 mmHg 60%
05:00 +20°C° 0 mm 2 mps 755 mmHg 61%
06:00 +22°C° 0 mm 1 mps 755 mmHg 61%
07:00 +23°C° 0 mm 1 mps 755 mmHg 62%
08:00 +24°C° 0 mm 1 mps 755 mmHg 60%
09:00 +25°C° 0 mm 1 mps 755 mmHg 58%
10:00 +26°C° 0 mm 1 mps 755 mmHg 56%
11:00 +27°C° 0 mm 2 mps 755 mmHg 53%
12:00 +28°C° 0 mm 2 mps 754 mmHg 50%
13:00 +29°C° 0 mm 2 mps 754 mmHg 47%
14:00 +29°C° 0 mm 2 mps 754 mmHg 49%
15:00 +29°C° 0 mm 2 mps 754 mmHg 50%
16:00 +29°C° 0 mm 2 mps 754 mmHg 51%
17:00 +27°C° 0.5 mm 2 mps 754 mmHg 59%
18:00 +26°C° 0.5 mm 2 mps 754 mmHg 67%
19:00 +25°C° 0.5 mm 2 mps 754 mmHg 74%
20:00 +24°C° 0.5 mm 2 mps 754 mmHg 77%
21:00 +23°C° 0.5 mm 2 mps 754 mmHg 80%
22:00 +21°C° 0.5 mm 2 mps 754 mmHg 82%
23:00 +21°C° 0.2 mm 2 mps 754 mmHg 83%

16 July, Thursday

Time Temperature Precipitation Wind Pressure Humidity
00:00 +20°C° 0.2 mm 2 mps 754 mmHg 83%
01:00 +20°C° 0.2 mm 2 mps 754 mmHg 83%
02:00 +20°C° 0 mm 2 mps 754 mmHg 83%
03:00 +20°C° 0 mm 1 mps 754 mmHg 83%
04:00 +20°C° 0 mm 1 mps 754 mmHg 83%
05:00 +21°C° 0 mm 1 mps 754 mmHg 81%
06:00 +22°C° 0 mm 1 mps 754 mmHg 79%
07:00 +23°C° 0 mm 1 mps 754 mmHg 77%
08:00 +24°C° 0.1 mm 1 mps 754 mmHg 72%
09:00 +26°C° 0.1 mm 1 mps 754 mmHg 66%
10:00 +27°C° 0.1 mm 1 mps 754 mmHg 61%
11:00 +28°C° 0.3 mm 1 mps 754 mmHg 59%
12:00 +28°C° 0.3 mm 1 mps 754 mmHg 58%
13:00 +29°C° 0.3 mm 1 mps 754 mmHg 56%
14:00 +29°C° 0.3 mm 1 mps 753 mmHg 57%
15:00 +29°C° 0.3 mm 2 mps 753 mmHg 58%
16:00 +29°C° 0.3 mm 2 mps 753 mmHg 58%
17:00 +28°C° 0.2 mm 2 mps 753 mmHg 63%
18:00 +27°C° 0.2 mm 3 mps 753 mmHg 68%
19:00 +26°C° 0.2 mm 3 mps 753 mmHg 74%
20:00 +25°C° 0.2 mm 3 mps 753 mmHg 75%
21:00 +23°C° 0.2 mm 4 mps 754 mmHg 76%
22:00 +22°C° 0.2 mm 4 mps 754 mmHg 78%
23:00 +22°C° 0.5 mm 4 mps 754 mmHg 77%
Show more